Time,TemperatureF,DewpointF,PressureIn,WindDirection,WindDirectionDegrees,WindSpeedMPH,WindSpeedGustMPH,Humidity,HourlyPrecipIn,Conditions,Clouds,dailyrainin,SoftwareType,DateUTC
2013-03-04 00:13:00,24.2,20.0,30.08,NNW,337,0.0,0.0,84,0.00,,,0.00,weatherlink.com 1.10,2013-03-04 05:13:00,
2013-03-04 00:28:00,24.0,20.0,30.08,NNW,337,0.0,0.0,83,0.00,,,0.00,weatherlink.com 1.10,2013-03-04 05:28:00,
2013-03-04 00:43:00,23.7,19.0,30.08,NNW,337,0.0,0.0,83,0.00,,,0.00,weatherlink.com 1.10,2013-03-04 05:43:00,
2013-03-04 00:58:00,23.1,18.0,30.09,NNW,337,0.0,0.0,82,0.00,,,0.00,weatherlink.com 1.10,2013-03-04 05:58:00,
2013-03-04 01:13:00,22.4,18.0,30.09,NNW,337,0.0,0.0,82,0.00,,,0.00,weatherlink.com 1.10,2013-03-04 06:13:00,
2013-03-04 01:29:00,21.5,17.0,30.09,NNW,337,0.0,0.0,83,0.00,,,0.00,weatherlink.com 1.10,2013-03-04 06:29:00,
2013-03-04 01:44:00,20.8,16.0,30.10,NNW,337,0.0,0.0,83,0.00,,,0.00,weatherlink.com 1.10,2013-03-04 06:44:00,
2013-03-04 01:59:00,20.2,16.0,30.10,NNW,337,0.0,0.0,84,0.00,,,0.00,weatherlink.com 1.10,2013-03-04 06:59:00,
2013-03-04 02:14:00,19.8,16.0,30.11,NNW,337,0.0,0.0,85,0.00,,,0.00,weatherlink.com 1.10,2013-03-04 07:14:00,
2013-03-04 02:29:00,19.9,17.0,30.11,NNW,337,0.0,0.0,87,0.00,,,0.00,weatherlink.com 1.10,2013-03-04 07:29:00,
2013-03-04 02:44:00,20.2,17.0,30.11,NNW,337,0.0,0.0,88,0.00,,,0.00,weatherlink.com 1.10,2013-03-04 07:44:00,
2013-03-04 02:59:00,20.5,18.0,30.11,NNW,337,0.0,0.0,88,0.00,,,0.00,weatherlink.com 1.10,2013-03-04 07:59:00,
2013-03-04 03:14:00,20.6,17.0,30.11,NNW,337,0.0,0.0,87,0.00,,,0.00,weatherlink.com 1.10,2013-03-04 08:14:00,
2013-03-04 03:29:00,20.2,17.0,30.10,NNW,337,0.0,0.0,86,0.00,,,0.00,weatherlink.com 1.10,2013-03-04 08:29:00,
2013-03-04 03:44:00,19.8,16.0,30.10,NNW,337,0.0,0.0,86,0.00,,,0.00,weatherlink.com 1.10,2013-03-04 08:44:00,
2013-03-04 03:59:00,19.1,16.0,30.10,NNW,337,0.0,0.0,86,0.00,,,0.00,weatherlink.com 1.10,2013-03-04 08:59:00,
2013-03-04 04:14:00,18.6,15.0,30.10,NNW,337,0.0,0.0,86,0.00,,,0.00,weatherlink.com 1.10,2013-03-04 09:14:00,
2013-03-04 04:29:00,18.3,15.0,30.10,NNW,337,0.0,0.0,86,0.00,,,0.00,weatherlink.com 1.10,2013-03-04 09:29:00,
2013-03-04 04:44:00,18.1,15.0,30.11,NNW,337,0.0,0.0,86,0.00,,,0.00,weatherlink.com 1.10,2013-03-04 09:44:00,
2013-03-04 04:59:00,17.7,14.0,30.11,NNW,337,0.0,0.0,86,0.00,,,0.00,weatherlink.com 1.10,2013-03-04 09:59:00,
2013-03-04 05:14:00,17.5,14.0,30.11,NNW,337,0.0,0.0,86,0.00,,,0.00,weatherlink.com 1.10,2013-03-04 10:14:00,
2013-03-04 05:29:00,17.3,14.0,30.12,NNW,337,0.0,0.0,87,0.00,,,0.00,weatherlink.com 1.10,2013-03-04 10:29:00,
2013-03-04 05:44:00,17.1,14.0,30.12,NNW,337,0.0,0.0,87,0.00,,,0.00,weatherlink.com 1.10,2013-03-04 10:44:00,
2013-03-04 05:59:00,17.0,14.0,30.14,NNW,337,0.0,0.0,87,0.00,,,0.00,weatherlink.com 1.10,2013-03-04 10:59:00,
2013-03-04 06:14:00,16.8,14.0,30.14,WSW,237,0.0,1.0,87,0.00,,,0.00,weatherlink.com 1.10,2013-03-04 11:14:00,
2013-03-04 06:29:00,16.5,14.0,30.14,WSW,237,0.0,1.0,88,0.00,,,0.00,weatherlink.com 1.10,2013-03-04 11:29:00,
2013-03-04 06:44:00,16.4,14.0,30.15,SW,236,0.0,0.0,88,0.00,,,0.00,weatherlink.com 1.10,2013-03-04 11:44:00,
2013-03-04 06:59:00,16.3,13.0,30.15,WSW,237,0.0,0.0,88,0.00,,,0.00,weatherlink.com 1.10,2013-03-04 11:59:00,
2013-03-04 07:15:00,16.2,13.0,30.16,WSW,237,0.0,0.0,88,0.00,,,0.00,weatherlink.com 1.10,2013-03-04 12:15:00,
2013-03-04 07:30:00,16.2,13.0,30.16,West,279,1.0,2.0,88,0.00,,,0.00,weatherlink.com 1.10,2013-03-04 12:30:00,
2013-03-04 07:45:00,16.4,14.0,30.16,WSW,242,1.0,2.0,89,0.00,,,0.00,weatherlink.com 1.10,2013-03-04 12:45:00,
2013-03-04 08:00:00,17.2,15.0,30.16,WSW,251,2.0,4.0,90,0.00,,,0.00,weatherlink.com 1.10,2013-03-04 13:00:00,
2013-03-04 08:15:00,18.2,16.0,30.17,WNW,291,1.0,4.0,90,0.00,,,0.00,weatherlink.com 1.10,2013-03-04 13:15:00,
2013-03-04 08:30:00,19.1,17.0,30.17,WSW,244,0.0,3.0,90,0.00,,,0.00,weatherlink.com 1.10,2013-03-04 13:30:00,
2013-03-04 08:45:00,20.1,17.0,30.17,WNW,283,0.0,3.0,89,0.00,,,0.00,weatherlink.com 1.10,2013-03-04 13:45:00,
2013-03-04 09:00:00,21.2,19.0,30.17,WSW,254,2.0,4.0,89,0.00,,,0.00,weatherlink.com 1.10,2013-03-04 14:00:00,
2013-03-04 09:15:00,23.2,20.0,30.17,WNW,291,1.0,2.0,86,0.00,,,0.00,weatherlink.com 1.10,2013-03-04 14:15:00,
2013-03-04 09:30:00,24.4,20.0,30.18,WSW,257,0.0,6.0,83,0.00,,,0.00,weatherlink.com 1.10,2013-03-04 14:30:00,
2013-03-04 09:45:00,25.4,21.0,30.18,West,264,1.0,5.0,82,0.00,,,0.00,weatherlink.com 1.10,2013-03-04 14:45:00,
2013-03-04 10:00:00,26.2,21.0,30.18,West,270,1.0,5.0,82,0.00,,,0.00,weatherlink.com 1.10,2013-03-04 15:00:00,
2013-03-04 10:15:00,26.8,22.0,30.18,WSW,239,1.0,6.0,81,0.00,,,0.00,weatherlink.com 1.10,2013-03-04 15:15:00,
2013-03-04 10:30:00,28.0,22.0,30.18,NNW,327,2.0,8.0,77,0.00,,,0.00,weatherlink.com 1.10,2013-03-04 15:30:00,
2013-03-04 10:45:00,28.3,22.0,30.17,NW,308,3.0,5.0,77,0.00,,,0.00,weatherlink.com 1.10,2013-03-04 15:45:00,
2013-03-04 11:00:00,28.7,21.0,30.17,West,271,4.0,7.0,74,0.00,,,0.00,weatherlink.com 1.10,2013-03-04 16:00:00,
2013-03-04 11:15:00,29.2,21.0,30.18,West,275,2.0,7.0,71,0.00,,,0.00,weatherlink.com 1.10,2013-03-04 16:15:00,
2013-03-04 11:30:00,30.1,22.0,30.17,WNW,295,5.0,9.0,71,0.00,,,0.00,weatherlink.com 1.10,2013-03-04 16:30:00,
2013-03-04 11:45:00,31.0,22.0,30.17,West,264,0.0,7.0,69,0.00,,,0.00,weatherlink.com 1.10,2013-03-04 16:45:00,
2013-03-04 12:00:00,31.1,21.0,30.17,South,180,3.0,7.0,65,0.00,,,0.00,weatherlink.com 1.10,2013-03-04 17:00:00,
2013-03-04 12:15:00,31.4,20.0,30.16,NNW,334,2.0,7.0,64,0.00,,,0.00,weatherlink.com 1.10,2013-03-04 17:15:00,
2013-03-04 12:30:00,31.3,21.0,30.16,NNW,328,0.0,7.0,66,0.00,,,0.00,weatherlink.com 1.10,2013-03-04 17:30:00,
2013-03-04 12:45:00,31.4,21.0,30.16,SSW,204,7.0,9.0,65,0.00,,,0.00,weatherlink.com 1.10,2013-03-04 17:45:00,
2013-03-04 13:00:00,32.1,21.0,30.16,SW,231,4.0,8.0,64,0.00,,,0.00,weatherlink.com 1.10,2013-03-04 18:00:00,
2013-03-04 13:15:00,32.1,21.0,30.15,WSW,247,5.0,6.0,65,0.00,,,0.00,weatherlink.com 1.10,2013-03-04 18:15:00,
2013-03-04 13:30:00,32.5,22.0,30.14,WNW,300,5.0,8.0,65,0.00,,,0.00,weatherlink.com 1.10,2013-03-04 18:30:00,
2013-03-04 13:45:00,32.7,21.0,30.14,SSW,209,3.0,8.0,63,0.00,,,0.00,weatherlink.com 1.10,2013-03-04 18:45:00,
2013-03-04 14:00:00,33.2,23.0,30.14,NNW,333,1.0,10.0,65,0.00,,,0.00,weatherlink.com 1.10,2013-03-04 19:00:00,
2013-03-04 14:15:00,33.8,25.0,30.14,West,267,5.0,6.0,69,0.00,,,0.00,weatherlink.com 1.10,2013-03-04 19:15:00,
2013-03-04 14:30:00,33.6,22.0,30.14,West,259,3.0,7.0,63,0.00,,,0.00,weatherlink.com 1.10,2013-03-04 19:30:00,
2013-03-04 14:45:00,33.6,23.0,30.13,SSE,156,3.0,7.0,65,0.00,,,0.00,weatherlink.com 1.10,2013-03-04 19:45:00,
2013-03-04 15:00:00,34.1,23.0,30.13,WNW,288,4.0,8.0,64,0.00,,,0.00,weatherlink.com 1.10,2013-03-04 20:00:00,
2013-03-04 15:15:00,34.2,23.0,30.12,SSW,200,0.0,6.0,64,0.00,,,0.00,weatherlink.com 1.10,2013-03-04 20:15:00,
2013-03-04 15:30:00,34.6,23.0,30.12,NNW,335,1.0,6.0,63,0.00,,,0.00,weatherlink.com 1.10,2013-03-04 20:30:00,
2013-03-04 15:45:00,34.5,23.0,30.12,SSW,204,1.0,7.0,62,0.00,,,0.00,weatherlink.com 1.10,2013-03-04 20:45:00,
2013-03-04 16:00:00,34.6,23.0,30.12,WSW,239,1.0,5.0,63,0.00,,,0.00,weatherlink.com 1.10,2013-03-04 21:00:00,
2013-03-04 16:15:00,34.6,23.0,30.12,WNW,303,2.0,4.0,63,0.00,,,0.00,weatherlink.com 1.10,2013-03-04 21:15:00,
2013-03-04 16:30:00,34.6,24.0,30.12,SW,225,0.0,4.0,66,0.00,,,0.00,weatherlink.com 1.10,2013-03-04 21:30:00,
2013-03-04 16:45:00,34.4,23.0,30.12,NW,312,2.0,7.0,64,0.00,,,0.00,weatherlink.com 1.10,2013-03-04 21:45:00,
2013-03-04 17:00:00,34.2,23.0,30.12,NNE,24,3.0,5.0,65,0.00,,,0.00,weatherlink.com 1.10,2013-03-04 22:00:00,
2013-03-04 17:15:00,34.0,24.0,30.12,West,264,0.0,4.0,66,0.00,,,0.00,weatherlink.com 1.10,2013-03-04 22:15:00,
2013-03-04 17:30:00,33.3,23.0,30.12,NNE,29,0.0,7.0,67,0.00,,,0.00,weatherlink.com 1.10,2013-03-04 22:30:00,
2013-03-04 17:45:00,32.4,23.0,30.13,NNE,16,0.0,5.0,68,0.00,,,0.00,weatherlink.com 1.10,2013-03-04 22:45:00,
2013-03-04 18:00:00,31.6,23.0,30.13,NNE,33,2.0,4.0,70,0.00,,,0.00,weatherlink.com 1.10,2013-03-04 23:00:00,
2013-03-04 18:15:00,31.0,23.0,30.13,NNE,22,4.0,6.0,71,0.00,,,0.00,weatherlink.com 1.10,2013-03-04 23:15:00,
2013-03-04 18:30:00,30.5,22.0,30.13,North,350,1.0,5.0,72,0.00,,,0.00,weatherlink.com 1.10,2013-03-04 23:30:00,
2013-03-04 18:45:00,30.1,22.0,30.13,NE,53,1.0,3.0,73,0.00,,,0.00,weatherlink.com 1.10,2013-03-04 23:45:00,
2013-03-04 19:00:00,29.8,22.0,30.14,North,4,3.0,3.0,74,0.00,,,0.00,weatherlink.com 1.10,2013-03-05 00:00:00,
2013-03-04 19:15:00,29.5,23.0,30.14,NE,39,2.0,2.0,75,0.00,,,0.00,weatherlink.com 1.10,2013-03-05 00:15:00,
2013-03-04 19:30:00,29.3,22.0,30.13,NE,39,1.0,3.0,75,0.00,,,0.00,weatherlink.com 1.10,2013-03-05 00:30:00,
2013-03-04 19:45:00,28.9,22.0,30.13,NE,46,0.0,3.0,75,0.00,,,0.00,weatherlink.com 1.10,2013-03-05 00:45:00,
2013-03-04 20:00:00,28.7,22.0,30.13,NE,47,0.0,1.0,76,0.00,,,0.00,weatherlink.com 1.10,2013-03-05 01:00:00,
2013-03-04 20:16:00,28.6,23.0,30.13,NE,46,0.0,0.0,78,0.00,,,0.00,weatherlink.com 1.10,2013-03-05 01:16:00,
2013-03-04 20:31:00,28.4,22.0,30.13,NE,47,0.0,0.0,78,0.00,,,0.00,weatherlink.com 1.10,2013-03-05 01:31:00,
2013-03-04 20:46:00,28.0,22.0,30.13,NE,47,0.0,0.0,78,0.00,,,0.00,weatherlink.com 1.10,2013-03-05 01:46:00,
2013-03-04 21:01:00,27.9,22.0,30.13,NE,46,0.0,0.0,79,0.00,,,0.00,weatherlink.com 1.10,2013-03-05 02:01:00,
2013-03-04 21:16:00,27.6,22.0,30.13,NE,46,0.0,0.0,80,0.00,,,0.00,weatherlink.com 1.10,2013-03-05 02:16:00,
2013-03-04 21:31:00,27.4,22.0,30.13,NE,46,0.0,0.0,80,0.00,,,0.00,weatherlink.com 1.10,2013-03-05 02:31:00,
2013-03-04 21:46:00,27.2,22.0,30.13,NE,46,0.0,0.0,81,0.00,,,0.00,weatherlink.com 1.10,2013-03-05 02:46:00,
2013-03-04 22:01:00,27.0,22.0,30.13,NE,46,0.0,0.0,82,0.00,,,0.00,weatherlink.com 1.10,2013-03-05 03:01:00,
2013-03-04 22:16:00,26.9,22.0,30.13,NE,46,0.0,0.0,83,0.00,,,0.00,weatherlink.com 1.10,2013-03-05 03:16:00,
2013-03-04 22:31:00,26.6,22.0,30.13,NE,47,0.0,0.0,82,0.00,,,0.00,weatherlink.com 1.10,2013-03-05 03:31:00,
2013-03-04 22:46:00,26.3,22.0,30.13,NE,45,0.0,0.0,83,0.00,,,0.00,weatherlink.com 1.10,2013-03-05 03:46:00,
2013-03-04 23:01:00,26.1,22.0,30.13,NE,46,0.0,0.0,83,0.00,,,0.00,weatherlink.com 1.10,2013-03-05 04:01:00,
2013-03-04 23:16:00,25.9,22.0,30.13,NE,46,0.0,0.0,84,0.00,,,0.00,weatherlink.com 1.10,2013-03-05 04:16:00,
2013-03-04 23:31:00,25.7,22.0,30.13,NE,47,0.0,0.0,85,0.00,,,0.00,weatherlink.com 1.10,2013-03-05 04:31:00,
2013-03-04 23:46:00,25.3,22.0,30.13,NE,46,0.0,0.0,86,0.00,,,0.00,weatherlink.com 1.10,2013-03-05 04:46:00,